This is the latest recevied weather packets stored in our database for station/object K1KOF. If no packets are shown the sender has not sent any weather packets the latest 10 day(s).
| Time | Temp. | Humidity | Pressure | Rain* | Wind** | Luminosity | Snow |
|---|---|---|---|---|---|---|---|
| 1778257914 | 20.56° C | 59% | 1028.1 hPa | 0 mm | - | 710 W/m² | - |
| 1778257609 | 20.56° C | 62% | 1028.2 hPa | 0 mm | - | 483 W/m² | - |
| 1778257307 | 20.56° C | 61% | 1028.1 hPa | 0 mm | - | 120 W/m² | - |
| 1778257004 | 20.56° C | 58% | 1028.1 hPa | 0 mm | - | 451 W/m² | - |
| 1778256701 | 20° C | 59% | 1028.2 hPa | 0 mm | - | 724 W/m² | - |
| 1778256400 | 20° C | 59% | 1028.2 hPa | 0 mm | - | 406 W/m² | - |
| 1778256097 | 19.44° C | 61% | 1028.3 hPa | 0 mm | - | 509 W/m² | - |
| 1778255794 | 19.44° C | 58% | 1028.6 hPa | 0 mm | - | 306 W/m² | - |
| 1778255491 | 19.44° C | 61% | 1028.5 hPa | 0 mm | - | 283 W/m² | - |
| 1778255188 | 19.44° C | 59% | 1028.7 hPa | 0 mm | - | 256 W/m² | - |
| 1778254884 | 19.44° C | 61% | 1028.7 hPa | 0 mm | - | 636 W/m² | - |
| 1778254581 | 19.44° C | 62% | 1028.6 hPa | 0 mm | - | 624 W/m² | - |
| 1778254278 | 19.44° C | 62% | 1028.8 hPa | 0 mm | - | 426 W/m² | - |
| 1778253975 | 18.89° C | 59% | 1028.7 hPa | 0 mm | - | 445 W/m² | - |
| 1778253670 | 18.89° C | 60% | 1028.9 hPa | 0 mm | - | 497 W/m² | - |
| 1778253367 | 18.89° C | 62% | 1028.7 hPa | 0 mm | - | 619 W/m² | - |
| 1778253064 | 18.89° C | 62% | 1028.6 hPa | 0 mm | - | 445 W/m² | - |
| 1778252761 | 18.89° C | 63% | 1028.6 hPa | 0 mm | - | 509 W/m² | - |
| 1778252457 | 18.89° C | 68% | 1028.6 hPa | 0 mm | - | 610 W/m² | - |
| 1778252154 | 18.89° C | 66% | 1028.4 hPa | 0 mm | - | 565 W/m² | - |
| 1778251850 | 18.33° C | 66% | 1028.6 hPa | 0 mm | - | 446 W/m² | - |
| 1778251548 | 18.89° C | 66% | 1028.6 hPa | 0 mm | - | 487 W/m² | - |
| 1778251245 | 17.78° C | 65% | 1028.7 hPa | 0 mm | - | 451 W/m² | - |
| 1778250943 | 18.89° C | 64% | 1028.6 hPa | 0 mm | - | 456 W/m² | - |
| 1778250639 | 18.89° C | 68% | 1028.6 hPa | 0 mm | - | 420 W/m² | - |
* Rain latest hour (hover to see other rain measurements)
** Current wind speed in m/s (hover to see current wind gust speed)